Weather Roundup
Issued by NWS Chicago, IL

Home | Current Version | Previous Version | Text Only | Print | Product List | Glossary On
Versions: 1 2 3 4 5 6 7 8 9 10 11 12 13 14 15 16 17 18 19 20 21 22 23 24 25 26 27 28 29 30 31 32 33 34 35 36 37 38 39 40 41 42 43 44 45 46 47 48 49 50
000
NZUS59 KLOT 060908
HRRLOT

CHICAGO AREA WEATHER ROUNDUP
NATIONAL WEATHER SERVICE CHICAGO/ROMEOVILLE IL
300 AM CST SAT FEB 06 2016

NOTE: "FAIR" INDICATES FEW OR NO CLOUDS BELOW 12,000 FEET WITH NO
SIGNIFICANT WEATHER AND/OR OBSTRUCTIONS TO VISIBILITY.

* THESE STATIONS ARE NOT UNDER NWS QUALITY CONTROL. THEY ALSO MAY NOT
  REPORT WEATHER SUCH AS PRECIPITATION OR FOG.

ILZ005-006-012>014-019>023-061000-
NORTHEAST ILLINOIS

CITY           SKY/WX    TMP DP  RH WIND       PRES   REMARKS
OHARE          MOCLDY    26  21  81 SW6       30.27F WCI  19
MIDWAY         CLOUDY    28  21  75 SW7       30.29F WCI  21
AURORA         MOCLDY    25  22  88 SW5       30.29S FOG     WCI  19
LANSING*       CLOUDY    25  23  91 S5        30.29F FOG     WCI  19
WAUKEGAN       MOCLDY    25  22  88 SW5       30.26S WCI  19
DUPAGE AIRPORT MOCLDY    24  18  77 SW7       30.27F WCI  16
WHEELING       MOCLDY    27  22  81 SW6       30.28F WCI  20
KANKAKEE*      CLOUDY    24  21  89 S5        30.31F WCI  18
MORRIS*        CLOUDY    25  22  90 S3        30.28S FOG
LEWIS AIRPORT* CLOUDY    25  22  87 SW6       30.29S WCI  18
$$

WIZ051-052-058>065-066-070>072-061000-
SOUTHEAST WISCONSIN

CITY           SKY/WX    TMP DP  RH WIND       PRES   REMARKS
MILWAUKEE      CLOUDY    29  20  69 SW7       30.24F WCI  22
KENOSHA*       CLOUDY    27  22  81 W9        30.26S WCI  18
RACINE*        CLOUDY    28  21  75 SW8       30.26F WCI  20
BURLINGTON     CLOUDY    26  21  83 SW7       30.25F WCI  18
$$

INZ001>003-010>013-019-020-061000-
NORTHWEST INDIANA

CITY           SKY/WX    TMP DP  RH WIND       PRES   REMARKS
GARY*          CLOUDY    28  23  82 CALM      30.30F
MICHIGAN CITY* NOT AVBL
RENSSELAER*    NOT AVBL
VALPARAISO     PTCLDY    22  20  92 S5        30.29F WCI  16
$$

LMZ740>746-061000-
SOUTHERN LAKE MICHIGAN

STATION/POSITION TIME  SKY/WX   TEMP WIND        PRES    VSBY
                                AIR  DIR/SP/G
                 (UTC)          (F)  (DEG/KT/KT) (MB)    (MI)
HARRISON CRIB    0800            30  250/  9/ 11   N/A
BURNHAM HARBOR   0900            28  240/  5/  8   N/A
CALUMET HARBOR   0800            26  230/  5/  6 1025.5F
BURNS HARBOR     0800            26  210/  8/  9 1026.8S
MICHIGAN CITY    0800            25  180/  7/  9   N/A
$$

ABBREVIATIONS USED IN REMARKS
   TC - TEMPERATURE IN CELSIUS
  WCI - WIND CHILL INDEX
   HX - HEAT INDEX
  VSB - VISIBILITY
$$



USA.gov is the U.S. government's official web portal to all federal, state and local government web resources and services.